Year,Month,Day,Hour,Minute,Value (Times are PST for temperature in C)
2020,12,05,00,00,6.30
2020,12,05,00,01,6.30
2020,12,05,00,02,6.30
2020,12,05,00,03,6.30
2020,12,05,00,04,6.30
2020,12,05,00,05,6.30
2020,12,05,00,06,6.30
2020,12,05,00,07,6.30
2020,12,05,00,08,6.30
2020,12,05,00,09,6.30
2020,12,05,00,10,6.30
2020,12,05,00,11,6.30
2020,12,05,00,12,6.20
2020,12,05,00,13,6.20
2020,12,05,00,14,6.20
2020,12,05,00,15,6.20
2020,12,05,00,16,6.20
2020,12,05,00,17,6.20
2020,12,05,00,18,6.20
2020,12,05,00,19,6.20
2020,12,05,00,20,6.10
2020,12,05,00,21,6.10
2020,12,05,00,22,6.10
2020,12,05,00,23,6.10
2020,12,05,00,24,6.10
2020,12,05,00,25,6.10
2020,12,05,00,26,6.10
2020,12,05,00,27,6.10
2020,12,05,00,28,6.10
2020,12,05,00,29,6.10
2020,12,05,00,30,6.10
2020,12,05,00,31,6.10
2020,12,05,00,32,6.10
2020,12,05,00,33,6.10
2020,12,05,00,34,6.10
2020,12,05,00,35,6.10
2020,12,05,00,36,6.00
2020,12,05,00,37,6.00
2020,12,05,00,38,6.00
2020,12,05,00,39,6.00
2020,12,05,00,40,6.10
2020,12,05,00,41,6.10
2020,12,05,00,42,6.10
2020,12,05,00,43,6.10
2020,12,05,00,44,6.10
2020,12,05,00,45,6.00
2020,12,05,00,46,6.00
2020,12,05,00,47,6.00
2020,12,05,00,48,6.00
2020,12,05,00,49,6.00
2020,12,05,00,50,6.00
2020,12,05,00,51,6.00
2020,12,05,00,52,6.00
2020,12,05,00,53,6.00
2020,12,05,00,54,6.00
2020,12,05,00,55,6.00
2020,12,05,00,56,6.00
2020,12,05,00,57,6.00
2020,12,05,00,58,6.00
2020,12,05,00,59,6.00
2020,12,05,01,00,6.00
2020,12,05,01,01,6.00
2020,12,05,01,02,6.00
2020,12,05,01,03,6.00
2020,12,05,01,04,6.00
2020,12,05,01,05,6.00
2020,12,05,01,06,6.00
2020,12,05,01,07,6.00
2020,12,05,01,08,6.00
2020,12,05,01,09,6.00
2020,12,05,01,10,6.00
2020,12,05,01,11,6.00
2020,12,05,01,12,6.00
2020,12,05,01,13,6.00
2020,12,05,01,14,6.00
2020,12,05,01,15,5.90
2020,12,05,01,16,5.90
2020,12,05,01,17,5.90
2020,12,05,01,18,5.90
2020,12,05,01,19,5.80
2020,12,05,01,20,5.70
2020,12,05,01,21,5.70
2020,12,05,01,22,5.70
2020,12,05,01,23,5.70
2020,12,05,01,24,5.70
2020,12,05,01,25,5.70
2020,12,05,01,26,5.70
2020,12,05,01,27,5.60
2020,12,05,01,28,5.60
2020,12,05,01,29,5.60
2020,12,05,01,30,5.60
2020,12,05,01,31,5.60
2020,12,05,01,32,5.60
2020,12,05,01,33,5.50
2020,12,05,01,34,5.50
2020,12,05,01,35,5.50
2020,12,05,01,36,5.50
2020,12,05,01,37,5.50
2020,12,05,01,38,5.40
2020,12,05,01,39,5.30
2020,12,05,01,40,5.30
2020,12,05,01,41,5.30
2020,12,05,01,42,5.30
2020,12,05,01,43,5.40
2020,12,05,01,44,5.50
2020,12,05,01,45,5.50
2020,12,05,01,46,5.60
2020,12,05,01,47,5.60
2020,12,05,01,48,5.70
2020,12,05,01,49,5.70
2020,12,05,01,50,5.60
2020,12,05,01,51,5.60
2020,12,05,01,52,5.60
2020,12,05,01,53,5.60
2020,12,05,01,54,5.60
2020,12,05,01,55,5.60
2020,12,05,01,56,5.60
2020,12,05,01,57,5.60
2020,12,05,01,58,5.60
2020,12,05,01,59,5.60
2020,12,05,02,00,5.60
2020,12,05,02,01,5.60
2020,12,05,02,02,5.60
2020,12,05,02,03,5.60
2020,12,05,02,04,5.70
2020,12,05,02,05,5.70
2020,12,05,02,06,5.70
2020,12,05,02,07,5.70
2020,12,05,02,08,5.70
2020,12,05,02,09,5.70
2020,12,05,02,10,5.60
2020,12,05,02,11,5.60
2020,12,05,02,12,5.50
2020,12,05,02,13,5.50
2020,12,05,02,14,5.50
2020,12,05,02,15,5.50
2020,12,05,02,16,5.50
2020,12,05,02,17,5.50
2020,12,05,02,18,5.50
2020,12,05,02,19,5.60
2020,12,05,02,20,5.60
2020,12,05,02,21,5.70
2020,12,05,02,22,5.70
2020,12,05,02,23,5.70
2020,12,05,02,24,5.70
2020,12,05,02,25,5.70
2020,12,05,02,26,5.70
2020,12,05,02,27,5.70
2020,12,05,02,28,5.70
2020,12,05,02,29,5.80
2020,12,05,02,30,5.80
2020,12,05,02,31,5.90
2020,12,05,02,32,5.80
2020,12,05,02,33,5.80
2020,12,05,02,34,5.70
2020,12,05,02,35,5.70
2020,12,05,02,36,5.70
2020,12,05,02,37,5.70
2020,12,05,02,38,5.70
2020,12,05,02,39,5.80
2020,12,05,02,40,5.80
2020,12,05,02,41,5.90
2020,12,05,02,42,5.90
2020,12,05,02,43,5.90
2020,12,05,02,44,5.90
2020,12,05,02,45,6.00
2020,12,05,02,46,6.00
2020,12,05,02,47,6.00
2020,12,05,02,48,6.00
2020,12,05,02,49,6.00
2020,12,05,02,50,6.10
2020,12,05,02,51,6.10
2020,12,05,02,52,6.20
2020,12,05,02,53,6.20
2020,12,05,02,54,6.20
2020,12,05,02,55,6.20
2020,12,05,02,56,6.30
2020,12,05,02,57,6.30
2020,12,05,02,58,6.30
2020,12,05,02,59,6.30
2020,12,05,03,00,6.30
2020,12,05,03,01,6.30
2020,12,05,03,02,6.30
2020,12,05,03,03,6.20
2020,12,05,03,04,6.20
2020,12,05,03,05,6.20
2020,12,05,03,06,6.20
2020,12,05,03,07,6.20
2020,12,05,03,08,6.30
2020,12,05,03,09,6.30
2020,12,05,03,10,6.30
2020,12,05,03,11,6.30
2020,12,05,03,12,6.30
2020,12,05,03,13,6.30
2020,12,05,03,14,6.30
2020,12,05,03,15,6.20
2020,12,05,03,16,6.20
2020,12,05,03,17,6.20
2020,12,05,03,18,6.20
2020,12,05,03,19,6.20
2020,12,05,03,20,6.20
2020,12,05,03,21,6.20
2020,12,05,03,22,6.20
2020,12,05,03,23,6.20
2020,12,05,03,24,6.10
2020,12,05,03,25,6.10
2020,12,05,03,26,6.10
2020,12,05,03,27,6.20
2020,12,05,03,28,6.20
2020,12,05,03,29,6.20
2020,12,05,03,30,6.30
2020,12,05,03,31,6.40
2020,12,05,03,32,6.40
2020,12,05,03,33,6.40
2020,12,05,03,34,6.40
2020,12,05,03,35,6.40
2020,12,05,03,36,6.40
2020,12,05,03,37,6.40
2020,12,05,03,38,6.40
2020,12,05,03,39,6.40
2020,12,05,03,40,6.40
2020,12,05,03,41,6.40
2020,12,05,03,42,6.40
2020,12,05,03,43,6.40
2020,12,05,03,44,6.30
2020,12,05,03,45,6.30
2020,12,05,03,46,6.30
2020,12,05,03,47,6.30
2020,12,05,03,48,6.30
2020,12,05,03,49,6.30
2020,12,05,03,50,6.30
2020,12,05,03,51,6.30
2020,12,05,03,52,6.30
2020,12,05,03,53,6.30
2020,12,05,03,54,6.30
2020,12,05,03,55,6.30
2020,12,05,03,56,6.30
2020,12,05,03,57,6.30
2020,12,05,03,58,6.30
2020,12,05,03,59,6.40
2020,12,05,04,00,6.40
2020,12,05,04,01,6.40
2020,12,05,04,02,6.40
2020,12,05,04,03,6.40
2020,12,05,04,04,6.40
2020,12,05,04,05,6.40
2020,12,05,04,06,6.40
2020,12,05,04,07,6.40
2020,12,05,04,08,6.30
2020,12,05,04,09,6.30
2020,12,05,04,10,6.30
2020,12,05,04,11,6.30
2020,12,05,04,12,6.30
2020,12,05,04,13,6.30
2020,12,05,04,14,6.40
2020,12,05,04,15,6.40
2020,12,05,04,16,6.40
2020,12,05,04,17,6.40
2020,12,05,04,18,6.40
2020,12,05,04,19,6.40
2020,12,05,04,20,6.40
2020,12,05,04,21,6.40
2020,12,05,04,22,6.50
2020,12,05,04,23,6.60
2020,12,05,04,24,6.60
2020,12,05,04,25,6.60
2020,12,05,04,26,6.60
2020,12,05,04,27,6.60
2020,12,05,04,28,6.60
2020,12,05,04,29,6.60
2020,12,05,04,30,6.60
2020,12,05,04,31,6.60
2020,12,05,04,32,6.60
2020,12,05,04,33,6.60
2020,12,05,04,34,6.60
2020,12,05,04,35,6.60
2020,12,05,04,36,6.60
2020,12,05,04,37,6.60
2020,12,05,04,38,6.60
2020,12,05,04,39,6.60
2020,12,05,04,40,6.50
2020,12,05,04,41,6.40
2020,12,05,04,42,6.40
2020,12,05,04,43,6.40
2020,12,05,04,44,6.40
2020,12,05,04,45,6.40
2020,12,05,04,46,6.40
2020,12,05,04,47,6.40
2020,12,05,04,48,6.40
2020,12,05,04,49,6.40
2020,12,05,04,50,6.30
2020,12,05,04,51,6.30
2020,12,05,04,52,6.30
2020,12,05,04,53,6.30
2020,12,05,04,54,6.30
2020,12,05,04,55,6.30
2020,12,05,04,56,6.30
2020,12,05,04,57,6.30
2020,12,05,04,58,6.30
2020,12,05,04,59,6.30
2020,12,05,05,00,6.30
2020,12,05,05,01,6.30
2020,12,05,05,02,6.30
2020,12,05,05,03,6.30
2020,12,05,05,04,6.30
2020,12,05,05,05,6.30
2020,12,05,05,06,6.30
2020,12,05,05,07,6.30
2020,12,05,05,08,6.30
2020,12,05,05,09,6.30
2020,12,05,05,10,6.30
2020,12,05,05,11,6.30
2020,12,05,05,12,6.30
2020,12,05,05,13,6.30
2020,12,05,05,14,6.30
2020,12,05,05,15,6.40
2020,12,05,05,16,6.40
2020,12,05,05,17,6.40
2020,12,05,05,18,6.40
2020,12,05,05,19,6.40
2020,12,05,05,20,6.40
2020,12,05,05,21,6.40
2020,12,05,05,22,6.40
2020,12,05,05,23,6.40
2020,12,05,05,24,6.50
2020,12,05,05,25,6.60
2020,12,05,05,26,6.60
2020,12,05,05,27,6.60
2020,12,05,05,28,6.60
2020,12,05,05,29,6.50
2020,12,05,05,30,6.40
2020,12,05,05,31,6.40
2020,12,05,05,32,6.60
2020,12,05,05,33,6.60
2020,12,05,05,34,6.50
2020,12,05,05,35,6.40
2020,12,05,05,36,6.40
2020,12,05,05,37,6.40
2020,12,05,05,38,6.40
2020,12,05,05,39,6.40
2020,12,05,05,40,6.40
2020,12,05,05,41,6.40
2020,12,05,05,42,6.30
2020,12,05,05,43,6.30
2020,12,05,05,44,6.30
2020,12,05,05,45,6.20
2020,12,05,05,46,6.20
2020,12,05,05,47,6.20
2020,12,05,05,48,6.20
2020,12,05,05,49,6.20
2020,12,05,05,50,6.20
2020,12,05,05,51,6.20
2020,12,05,05,52,6.20
2020,12,05,05,53,6.10
2020,12,05,05,54,6.10
2020,12,05,05,55,6.10
2020,12,05,05,56,6.10
2020,12,05,05,57,6.10
2020,12,05,05,58,6.20
2020,12,05,05,59,6.20
2020,12,05,06,00,6.10
2020,12,05,06,01,6.10
2020,12,05,06,02,6.10
2020,12,05,06,03,6.20
2020,12,05,06,04,6.10
2020,12,05,06,05,6.10
2020,12,05,06,06,6.10
2020,12,05,06,07,6.10
2020,12,05,06,08,6.10
2020,12,05,06,09,6.10
2020,12,05,06,10,6.10
2020,12,05,06,11,6.00
2020,12,05,06,12,6.00
2020,12,05,06,13,6.00
2020,12,05,06,14,6.00
2020,12,05,06,15,6.00
2020,12,05,06,16,6.00
2020,12,05,06,17,6.00
2020,12,05,06,18,5.90
2020,12,05,06,19,5.90
2020,12,05,06,20,5.90
2020,12,05,06,21,5.90
2020,12,05,06,22,5.90
2020,12,05,06,23,5.90
2020,12,05,06,24,5.90
2020,12,05,06,25,5.90
2020,12,05,06,26,5.90
2020,12,05,06,27,5.90
2020,12,05,06,28,5.80
2020,12,05,06,29,5.80
2020,12,05,06,30,5.80
2020,12,05,06,31,5.80
2020,12,05,06,32,5.80
2020,12,05,06,33,5.70
2020,12,05,06,34,5.70
2020,12,05,06,35,5.70
2020,12,05,06,36,5.80
2020,12,05,06,37,5.80
2020,12,05,06,38,5.90
2020,12,05,06,39,5.90
2020,12,05,06,40,5.90
2020,12,05,06,41,5.90
2020,12,05,06,42,6.00
2020,12,05,06,43,6.00
2020,12,05,06,44,6.00
2020,12,05,06,45,5.90
2020,12,05,06,46,5.90
2020,12,05,06,47,5.90
2020,12,05,06,48,5.90
2020,12,05,06,49,5.90
2020,12,05,06,50,5.90
2020,12,05,06,51,5.90
2020,12,05,06,52,5.90
2020,12,05,06,53,5.90
2020,12,05,06,54,5.90
2020,12,05,06,55,5.80
2020,12,05,06,56,5.80
2020,12,05,06,57,5.90
2020,12,05,06,58,5.90
2020,12,05,06,59,5.90
2020,12,05,07,00,5.90
2020,12,05,07,01,5.80
2020,12,05,07,02,5.80
2020,12,05,07,03,5.80
2020,12,05,07,04,5.80
2020,12,05,07,05,5.80
2020,12,05,07,06,5.80
2020,12,05,07,07,5.80
2020,12,05,07,08,5.70
2020,12,05,07,09,5.70
2020,12,05,07,10,5.70
2020,12,05,07,11,5.70
2020,12,05,07,12,5.70
2020,12,05,07,13,5.70
2020,12,05,07,14,5.70
2020,12,05,07,15,5.70
2020,12,05,07,16,5.70
2020,12,05,07,17,5.70
2020,12,05,07,18,5.60
2020,12,05,07,19,5.60
2020,12,05,07,20,5.60
2020,12,05,07,21,5.60
2020,12,05,07,22,5.60
2020,12,05,07,23,5.60
2020,12,05,07,24,5.60
2020,12,05,07,25,5.60
2020,12,05,07,26,5.60
2020,12,05,07,27,5.60
2020,12,05,07,28,5.50
2020,12,05,07,29,5.50
2020,12,05,07,30,5.50
2020,12,05,07,31,5.50
2020,12,05,07,32,5.50
2020,12,05,07,33,5.50
2020,12,05,07,34,5.50
2020,12,05,07,35,5.50
2020,12,05,07,36,5.60
2020,12,05,07,37,5.60
2020,12,05,07,38,5.70
2020,12,05,07,39,5.70
2020,12,05,07,40,5.70
2020,12,05,07,41,5.80
2020,12,05,07,42,5.80
2020,12,05,07,43,5.80
2020,12,05,07,44,5.80
2020,12,05,07,45,5.80
2020,12,05,07,46,5.80
2020,12,05,07,47,5.80
2020,12,05,07,48,5.80
2020,12,05,07,49,5.70
2020,12,05,07,50,5.70
2020,12,05,07,51,5.70
2020,12,05,07,52,5.70
2020,12,05,07,53,5.70
2020,12,05,07,54,5.70
2020,12,05,07,55,5.70
2020,12,05,07,56,5.70
2020,12,05,07,57,5.70
2020,12,05,07,58,5.70
2020,12,05,07,59,5.70
2020,12,05,08,00,5.70
2020,12,05,08,01,5.70
2020,12,05,08,02,5.70
2020,12,05,08,03,5.70
2020,12,05,08,04,5.80
2020,12,05,08,05,5.80
2020,12,05,08,06,5.80
2020,12,05,08,07,5.80
2020,12,05,08,08,5.90
2020,12,05,08,09,5.90
2020,12,05,08,10,5.90
2020,12,05,08,11,5.90
2020,12,05,08,12,5.90
2020,12,05,08,13,6.00
2020,12,05,08,14,6.00
2020,12,05,08,15,6.10
2020,12,05,08,16,6.10
2020,12,05,08,17,6.20
2020,12,05,08,18,6.20
2020,12,05,08,19,6.20
2020,12,05,08,20,6.20
2020,12,05,08,21,6.20
2020,12,05,08,22,6.20
2020,12,05,08,23,6.20
2020,12,05,08,24,6.30
2020,12,05,08,25,6.30
2020,12,05,08,26,6.30
2020,12,05,08,27,6.30
2020,12,05,08,28,6.40
2020,12,05,08,29,6.30
2020,12,05,08,30,6.40
2020,12,05,08,31,6.40
2020,12,05,08,32,6.40
2020,12,05,08,33,6.40
2020,12,05,08,34,6.40
2020,12,05,08,35,6.40
2020,12,05,08,36,6.40
2020,12,05,08,37,6.50
2020,12,05,08,38,6.60
2020,12,05,08,39,6.60
2020,12,05,08,40,6.60
2020,12,05,08,41,6.60
2020,12,05,08,42,6.60
2020,12,05,08,43,6.60
2020,12,05,08,44,6.60
2020,12,05,08,45,6.60
2020,12,05,08,46,6.60
2020,12,05,08,47,6.60
2020,12,05,08,48,6.60
2020,12,05,08,49,6.60
2020,12,05,08,50,6.60
2020,12,05,08,51,6.60
2020,12,05,08,52,6.60
2020,12,05,08,53,6.60
2020,12,05,08,54,6.60
2020,12,05,08,55,6.60
2020,12,05,08,56,6.60
2020,12,05,08,57,6.60
2020,12,05,08,58,6.60
2020,12,05,08,59,6.60
2020,12,05,09,00,6.60
2020,12,05,09,01,6.60
2020,12,05,09,02,6.60
2020,12,05,09,03,6.60
2020,12,05,09,04,6.60
2020,12,05,09,05,6.70
2020,12,05,09,06,6.70
2020,12,05,09,07,6.80
2020,12,05,09,08,6.80
2020,12,05,09,09,6.80
2020,12,05,09,10,6.80
2020,12,05,09,11,6.90
2020,12,05,09,12,6.90
2020,12,05,09,13,7.00
2020,12,05,09,14,7.00
2020,12,05,09,15,7.00
2020,12,05,09,16,7.10
2020,12,05,09,17,7.10
2020,12,05,09,18,7.10
2020,12,05,09,19,7.20
2020,12,05,09,20,7.20
2020,12,05,09,21,7.20
2020,12,05,09,22,7.30
2020,12,05,09,23,7.30
2020,12,05,09,24,7.30
2020,12,05,09,25,7.30
2020,12,05,09,26,7.30
2020,12,05,09,27,7.40
2020,12,05,09,28,7.40
2020,12,05,09,29,7.50
2020,12,05,09,30,7.50
2020,12,05,09,31,7.60
2020,12,05,09,32,7.60
2020,12,05,09,33,7.60
2020,12,05,09,34,7.70
2020,12,05,09,35,7.70
2020,12,05,09,36,7.80
2020,12,05,09,37,7.80
2020,12,05,09,38,7.80
2020,12,05,09,39,7.90
2020,12,05,09,40,7.90
2020,12,05,09,41,8.00
2020,12,05,09,42,8.00
2020,12,05,09,43,8.00
2020,12,05,09,44,8.00
2020,12,05,09,45,8.10
2020,12,05,09,46,8.10
2020,12,05,09,47,8.10
2020,12,05,09,48,8.10
2020,12,05,09,49,8.20
2020,12,05,09,50,8.20
2020,12,05,09,51,8.20
2020,12,05,09,52,8.20
2020,12,05,09,53,8.20
2020,12,05,09,54,8.20
2020,12,05,09,55,8.20
2020,12,05,09,56,8.20
2020,12,05,09,57,8.20
2020,12,05,09,58,8.20
2020,12,05,09,59,8.20
2020,12,05,10,00,8.30
2020,12,05,10,01,8.30
2020,12,05,10,02,8.30
2020,12,05,10,03,8.30
2020,12,05,10,04,8.30
2020,12,05,10,05,8.30
2020,12,05,10,06,8.30
2020,12,05,10,07,8.30
2020,12,05,10,08,8.30
2020,12,05,10,09,8.30
2020,12,05,10,10,8.40
2020,12,05,10,11,8.40
2020,12,05,10,12,8.40
2020,12,05,10,13,8.50
2020,12,05,10,14,8.50
2020,12,05,10,15,8.50
2020,12,05,10,16,8.60
2020,12,05,10,17,8.70
2020,12,05,10,18,8.70
2020,12,05,10,19,8.70
2020,12,05,10,20,8.70
2020,12,05,10,21,8.70
2020,12,05,10,22,8.70
2020,12,05,10,23,8.70
2020,12,05,10,24,8.80
2020,12,05,10,25,8.80
2020,12,05,10,26,8.90
2020,12,05,10,27,8.90
2020,12,05,10,28,8.90
2020,12,05,10,29,8.90
2020,12,05,10,30,9.00
2020,12,05,10,31,9.00
2020,12,05,10,32,9.00
2020,12,05,10,33,9.00
2020,12,05,10,34,9.10
2020,12,05,10,35,9.10
2020,12,05,10,36,9.10
2020,12,05,10,37,9.10
2020,12,05,10,38,9.10
2020,12,05,10,39,9.10
2020,12,05,10,40,9.20
2020,12,05,10,41,9.20
2020,12,05,10,42,9.20
2020,12,05,10,43,9.20
2020,12,05,10,44,9.20
2020,12,05,10,45,9.20
2020,12,05,10,46,9.20
2020,12,05,10,47,9.30
2020,12,05,10,48,9.30
2020,12,05,10,49,9.40
2020,12,05,10,50,9.40
2020,12,05,10,51,9.50
2020,12,05,10,52,9.50
2020,12,05,10,53,9.50
2020,12,05,10,54,9.50
2020,12,05,10,55,9.40
2020,12,05,10,56,9.40
2020,12,05,10,57,9.40
2020,12,05,10,58,9.40
2020,12,05,10,59,9.30
2020,12,05,11,00,9.30
2020,12,05,11,01,9.20
2020,12,05,11,02,9.20
2020,12,05,11,03,9.20
2020,12,05,11,04,9.20
2020,12,05,11,05,9.20
2020,12,05,11,06,9.20
2020,12,05,11,07,9.20
2020,12,05,11,08,9.20
2020,12,05,11,09,9.20
2020,12,05,11,10,9.20
2020,12,05,11,11,9.20
2020,12,05,11,12,9.20
2020,12,05,11,13,9.20
2020,12,05,11,14,9.30
2020,12,05,11,15,9.30
2020,12,05,11,16,9.30
2020,12,05,11,17,9.30
2020,12,05,11,18,9.40
2020,12,05,11,19,9.40
2020,12,05,11,20,9.40
2020,12,05,11,21,9.50
2020,12,05,11,22,9.50
2020,12,05,11,23,9.60
2020,12,05,11,24,9.70
2020,12,05,11,25,9.70
2020,12,05,11,26,9.70
2020,12,05,11,27,9.70
2020,12,05,11,28,9.70
2020,12,05,11,29,9.70
2020,12,05,11,30,9.70
2020,12,05,11,31,9.70
2020,12,05,11,32,9.70
2020,12,05,11,33,9.70
2020,12,05,11,34,9.70
2020,12,05,11,35,9.70
2020,12,05,11,36,9.70
2020,12,05,11,37,9.70
2020,12,05,11,38,9.70
2020,12,05,11,39,9.80
2020,12,05,11,40,9.80
2020,12,05,11,41,9.90
2020,12,05,11,42,9.90
2020,12,05,11,43,9.90
2020,12,05,11,44,9.90
2020,12,05,11,45,9.90
2020,12,05,11,46,10.00
2020,12,05,11,47,10.10
2020,12,05,11,48,10.10
2020,12,05,11,49,10.10
2020,12,05,11,50,10.10
2020,12,05,11,51,10.10
2020,12,05,11,52,10.10
2020,12,05,11,53,10.10
2020,12,05,11,54,10.10
2020,12,05,11,55,10.10
2020,12,05,11,56,10.10
2020,12,05,11,57,10.20
2020,12,05,11,58,10.20
2020,12,05,11,59,10.20
2020,12,05,12,00,10.20
2020,12,05,12,01,10.30
2020,12,05,12,02,10.30
2020,12,05,12,03,10.30
2020,12,05,12,04,10.30
2020,12,05,12,05,10.30
2020,12,05,12,06,10.30
2020,12,05,12,07,10.40
2020,12,05,12,08,10.40
2020,12,05,12,09,10.40
2020,12,05,12,10,10.40
2020,12,05,12,11,10.40
2020,12,05,12,12,10.40
2020,12,05,12,13,10.40
2020,12,05,12,14,10.40
2020,12,05,12,15,10.50
2020,12,05,12,16,10.60
2020,12,05,12,17,10.50
2020,12,05,12,18,10.60
2020,12,05,12,19,10.60
2020,12,05,12,20,10.60
2020,12,05,12,21,10.70
2020,12,05,12,22,10.60
2020,12,05,12,23,10.60
2020,12,05,12,24,10.60
2020,12,05,12,25,10.60
2020,12,05,12,26,10.70
2020,12,05,12,27,10.80
2020,12,05,12,28,10.80
2020,12,05,12,29,10.90
2020,12,05,12,30,10.90
2020,12,05,12,31,10.90
2020,12,05,12,32,10.90
2020,12,05,12,33,10.90
2020,12,05,12,34,10.90
2020,12,05,12,35,10.90
2020,12,05,12,36,11.10
2020,12,05,12,37,11.10
2020,12,05,12,38,11.10
2020,12,05,12,39,11.20
2020,12,05,12,40,11.20
2020,12,05,12,41,11.20
2020,12,05,12,42,11.20
2020,12,05,12,43,11.20
2020,12,05,12,44,11.30
2020,12,05,12,45,11.30
2020,12,05,12,46,11.30
2020,12,05,12,47,11.30
2020,12,05,12,48,11.30
2020,12,05,12,49,11.30
2020,12,05,12,50,11.40
2020,12,05,12,51,11.40
2020,12,05,12,52,11.40
2020,12,05,12,53,11.30
2020,12,05,12,54,11.30
2020,12,05,12,55,11.20
2020,12,05,12,56,11.30
2020,12,05,12,57,11.30
2020,12,05,12,58,11.40
2020,12,05,12,59,11.40
2020,12,05,13,00,11.40
2020,12,05,13,01,11.40
2020,12,05,13,02,11.40
2020,12,05,13,03,11.40
2020,12,05,13,04,11.40
2020,12,05,13,05,11.40
2020,12,05,13,06,11.30
2020,12,05,13,07,11.30
2020,12,05,13,08,11.30
2020,12,05,13,09,11.20
2020,12,05,13,10,11.20
2020,12,05,13,11,11.20
2020,12,05,13,12,11.20
2020,12,05,13,13,11.10
2020,12,05,13,14,11.10
2020,12,05,13,15,11.10
2020,12,05,13,16,11.10
2020,12,05,13,17,11.10
2020,12,05,13,18,11.10
2020,12,05,13,19,11.10
2020,12,05,13,20,11.10
2020,12,05,13,21,11.10
2020,12,05,13,22,11.20
2020,12,05,13,23,11.10
2020,12,05,13,24,11.10
2020,12,05,13,25,11.10
2020,12,05,13,26,11.10
2020,12,05,13,27,11.20
2020,12,05,13,28,11.20
2020,12,05,13,29,11.20
2020,12,05,13,30,11.20
2020,12,05,13,31,11.20
2020,12,05,13,32,11.20
2020,12,05,13,33,11.10
2020,12,05,13,34,11.10
2020,12,05,13,35,11.10
2020,12,05,13,36,11.10
2020,12,05,13,37,11.10
2020,12,05,13,38,11.10
2020,12,05,13,39,11.10
2020,12,05,13,40,11.10
2020,12,05,13,41,11.10
2020,12,05,13,42,11.10
2020,12,05,13,43,11.10
2020,12,05,13,44,11.10
2020,12,05,13,45,11.10
2020,12,05,13,46,11.10
2020,12,05,13,47,11.10
2020,12,05,13,48,11.10
2020,12,05,13,49,11.10
2020,12,05,13,50,11.10
2020,12,05,13,51,11.10
2020,12,05,13,52,11.20
2020,12,05,13,53,11.20
2020,12,05,13,54,11.20
2020,12,05,13,55,11.20
2020,12,05,13,56,11.30
2020,12,05,13,57,11.30
2020,12,05,13,58,11.30
2020,12,05,13,59,11.30
2020,12,05,14,00,11.20
2020,12,05,14,01,11.20
2020,12,05,14,02,11.20
2020,12,05,14,03,11.30
2020,12,05,14,04,11.30
2020,12,05,14,05,11.30
2020,12,05,14,06,11.40
2020,12,05,14,07,11.40
2020,12,05,14,08,11.40
2020,12,05,14,09,11.40
2020,12,05,14,10,11.40
2020,12,05,14,11,11.40
2020,12,05,14,12,11.50
2020,12,05,14,13,11.60
2020,12,05,14,14,11.60
2020,12,05,14,15,11.60
2020,12,05,14,16,11.70
2020,12,05,14,17,11.70
2020,12,05,14,18,11.70
2020,12,05,14,19,11.60
2020,12,05,14,20,11.60
2020,12,05,14,21,11.60
2020,12,05,14,22,11.60
2020,12,05,14,23,11.60
2020,12,05,14,24,11.60
2020,12,05,14,25,11.50
2020,12,05,14,26,11.40
2020,12,05,14,27,11.40
2020,12,05,14,28,11.30
2020,12,05,14,29,11.20
2020,12,05,14,30,11.20
2020,12,05,14,31,11.10
2020,12,05,14,32,11.10
2020,12,05,14,33,11.10
2020,12,05,14,34,11.10
2020,12,05,14,35,11.10
2020,12,05,14,36,11.10
2020,12,05,14,37,11.10
2020,12,05,14,38,11.10
2020,12,05,14,39,11.10
2020,12,05,14,40,11.10
2020,12,05,14,41,11.00
2020,12,05,14,42,10.90
2020,12,05,14,43,10.90
2020,12,05,14,44,10.90
2020,12,05,14,45,10.90
2020,12,05,14,46,10.90
2020,12,05,14,47,10.90
2020,12,05,14,48,10.90
2020,12,05,14,49,10.80
2020,12,05,14,50,10.80
2020,12,05,14,51,10.80
2020,12,05,14,52,10.70
2020,12,05,14,53,10.70
2020,12,05,14,54,10.70
2020,12,05,14,55,10.70
2020,12,05,14,56,10.70
2020,12,05,14,57,10.70
2020,12,05,14,58,10.70
2020,12,05,14,59,10.70
2020,12,05,15,00,10.70
2020,12,05,15,01,10.70
2020,12,05,15,02,10.80
2020,12,05,15,03,10.80
2020,12,05,15,04,10.80
2020,12,05,15,05,10.90
2020,12,05,15,06,10.80
2020,12,05,15,07,10.80
2020,12,05,15,08,10.90
2020,12,05,15,09,10.90
2020,12,05,15,10,10.90
2020,12,05,15,11,10.90
2020,12,05,15,12,10.90
2020,12,05,15,13,10.90
2020,12,05,15,14,10.90
2020,12,05,15,15,10.90
2020,12,05,15,16,10.90
2020,12,05,15,17,10.90
2020,12,05,15,18,10.90
2020,12,05,15,19,10.90
2020,12,05,15,20,10.90
2020,12,05,15,21,10.90
2020,12,05,15,22,10.90
2020,12,05,15,23,10.90
2020,12,05,15,24,10.90
2020,12,05,15,25,10.90
2020,12,05,15,26,10.90
2020,12,05,15,27,10.90
2020,12,05,15,28,10.80
2020,12,05,15,29,10.80
2020,12,05,15,30,10.80
2020,12,05,15,31,10.70
2020,12,05,15,32,10.70
2020,12,05,15,33,10.70
2020,12,05,15,34,10.70
2020,12,05,15,35,10.70
2020,12,05,15,36,10.70
2020,12,05,15,37,10.70
2020,12,05,15,38,10.70
2020,12,05,15,39,10.60
2020,12,05,15,40,10.60
2020,12,05,15,41,10.60
2020,12,05,15,42,10.60
2020,12,05,15,43,10.60
2020,12,05,15,44,10.60
2020,12,05,15,45,10.40
2020,12,05,15,46,10.40
2020,12,05,15,47,10.40
2020,12,05,15,48,10.30
2020,12,05,15,49,10.30
2020,12,05,15,50,10.20
2020,12,05,15,51,10.20
2020,12,05,15,52,10.10
2020,12,05,15,53,10.10
2020,12,05,15,54,10.10
2020,12,05,15,55,10.10
2020,12,05,15,56,10.10
2020,12,05,15,57,10.10
2020,12,05,15,58,10.00
2020,12,05,15,59,9.90
2020,12,05,16,00,9.90
2020,12,05,16,01,9.90
2020,12,05,16,02,9.90
2020,12,05,16,03,9.90
2020,12,05,16,04,9.90
2020,12,05,16,05,9.90
2020,12,05,16,06,9.80
2020,12,05,16,07,9.80
2020,12,05,16,08,9.70
2020,12,05,16,09,9.70
2020,12,05,16,10,9.70
2020,12,05,16,11,9.70
2020,12,05,16,12,9.70
2020,12,05,16,13,9.60
2020,12,05,16,14,9.60
2020,12,05,16,15,9.50
2020,12,05,16,16,9.50
2020,12,05,16,17,9.50
2020,12,05,16,18,9.40
2020,12,05,16,19,9.40
2020,12,05,16,20,9.40
2020,12,05,16,21,9.40
2020,12,05,16,22,9.30
2020,12,05,16,23,9.30
2020,12,05,16,24,9.20
2020,12,05,16,25,9.20
2020,12,05,16,26,9.20
2020,12,05,16,27,9.20
2020,12,05,16,28,9.20
2020,12,05,16,29,9.20
2020,12,05,16,30,9.10
2020,12,05,16,31,9.10
2020,12,05,16,32,9.00
2020,12,05,16,33,9.00
2020,12,05,16,34,8.90
2020,12,05,16,35,8.90
2020,12,05,16,36,8.80
2020,12,05,16,37,8.80
2020,12,05,16,38,8.70
2020,12,05,16,39,8.70
2020,12,05,16,40,8.70
2020,12,05,16,41,8.70
2020,12,05,16,42,8.70
2020,12,05,16,43,8.70
2020,12,05,16,44,8.70
2020,12,05,16,45,8.70
2020,12,05,16,46,8.70
2020,12,05,16,47,8.70
2020,12,05,16,48,8.70
2020,12,05,16,49,8.70
2020,12,05,16,50,8.60
2020,12,05,16,51,8.60
2020,12,05,16,52,8.60
2020,12,05,16,53,8.60
2020,12,05,16,54,8.60
2020,12,05,16,55,8.50
2020,12,05,16,56,8.50
2020,12,05,16,57,8.50
2020,12,05,16,58,8.50
2020,12,05,16,59,8.40
2020,12,05,17,00,8.40
2020,12,05,17,01,8.30
2020,12,05,17,02,8.30
2020,12,05,17,03,8.30
2020,12,05,17,04,8.30
2020,12,05,17,05,8.20
2020,12,05,17,06,8.20
2020,12,05,17,07,8.20
2020,12,05,17,08,8.20
2020,12,05,17,09,8.10
2020,12,05,17,10,8.10
2020,12,05,17,11,8.00
2020,12,05,17,12,8.00
2020,12,05,17,13,8.00
2020,12,05,17,14,7.90
2020,12,05,17,15,7.90
2020,12,05,17,16,7.90
2020,12,05,17,17,7.80
2020,12,05,17,18,7.80
2020,12,05,17,19,7.80
2020,12,05,17,20,7.80
2020,12,05,17,21,7.80
2020,12,05,17,22,7.80
2020,12,05,17,23,7.80
2020,12,05,17,24,7.80
2020,12,05,17,25,7.80
2020,12,05,17,26,7.70
2020,12,05,17,27,7.70
2020,12,05,17,28,7.70
2020,12,05,17,29,7.70
2020,12,05,17,30,7.70
2020,12,05,17,31,7.60
2020,12,05,17,32,7.60
2020,12,05,17,33,7.60
2020,12,05,17,34,7.60
2020,12,05,17,35,7.60
2020,12,05,17,36,7.70
2020,12,05,17,37,7.70
2020,12,05,17,38,7.70
2020,12,05,17,39,7.70
2020,12,05,17,40,7.70
2020,12,05,17,41,7.60
2020,12,05,17,42,7.60
2020,12,05,17,43,7.60
2020,12,05,17,44,7.60
2020,12,05,17,45,7.50
2020,12,05,17,46,7.50
2020,12,05,17,47,7.50
2020,12,05,17,48,7.40
2020,12,05,17,49,7.40
2020,12,05,17,50,7.40
2020,12,05,17,51,7.30
2020,12,05,17,52,7.30
2020,12,05,17,53,7.30
2020,12,05,17,54,7.30
2020,12,05,17,55,7.30